1998-067XS

Last updated on Sun Dec 14 2025 00:02:09 GMT+0000 (Coordinated Universal Time)

1 66906U 98067XS 25346.72929150 .00036816 00000+0 63717-3 0 9992 2 66906 51.6293 142.4703 0003602 202.1444 157.9390 15.50562979 1615
UTC large
Height (km)
Speed (km/s)
/
Latitude / Longitude
Inclination (degrees)
Orbital Period (minutes)
Azimuth
Elevation
Range (km)
Doppler Factor

Next 0 passes for location: London (51.5072 / 0.1276)

Sorry there are no passes over London.